TARTU/ULENURME current weather conditions

sailwx.info

Wind from 190 at 11 knots

Air temperature 1.0° C
Visibility: greater than 5.4 NM
Dewpoint -1.0° C

Last reported at 2016-Feb-06 20:50 UTC.
Time now 2016-Feb-06 23:28 UTC

Location: N 58°18' E 026°44'.
View on Google Maps.

See reports from other nearby stations

  
Tides and Currents Weather Stations Pressure Air Temp Water Temp Dewpoint Dewpoint Depression Visibility Wind Speed Wind Dir Waves Ship Positions
date/time (UTC)wind fromknots sea level pressurealtimeterstation pressurevisibilityair tempwater tempwave heightnotes
2016-Feb-06 21:50 200 11 5.4 2.0
2016-Feb-06 20:50 190 11 5.4 1.0
2016-Feb-06 19:50 190 13 5.4 1.0 Light drizzle.
2016-Feb-06 18:50 190 13 5.4 1.0
2016-Feb-06 17:50 180 10 2.7-0.0 Light snow.
2016-Feb-06 16:50 170 11 4.9-0.0 Snow grains.
2016-Feb-06 15:50 170 11 5.4-0.0 Light snow.
2016-Feb-06 14:50 160 7 5.4-0.0
2016-Feb-06 13:50 170 8 5.4-0.0
2016-Feb-06 12:50 160 7 5.4-0.0
2016-Feb-06 11:50 160 6 5.4-0.0
2016-Feb-06 10:50 160 5 -1.0
2016-Feb-06 09:50 150 5 5.4-2.0
2016-Feb-06 08:50 150 5 5.4-4.0
2016-Feb-06 07:50 140 4 5.4-5.0
2016-Feb-06 06:50 180 3 5.4-5.0
2016-Feb-06 05:50 220 5 5.4-5.0
2016-Feb-06 04:50 260 6 5.4-4.0
2016-Feb-06 03:50 250 8 5.4-4.0
2016-Feb-06 02:50 300 4 5.4-4.0
2016-Feb-06 01:50 290 4 5.4-4.0
2016-Feb-06 00:50 290 4 5.4-4.0
2016-Feb-05 23:50 290 5 5.4-4.0
2016-Feb-05 22:50 310 9 5.4-4.0
2016-Feb-05 21:50 320 7 5.4-4.0
2016-Feb-05 20:50 320 8 5.4-3.0
2016-Feb-05 19:50 310 8 5.4-3.0
2016-Feb-05 18:50 300 7 5.4-3.0
2016-Feb-05 17:50 320 11 5.4-2.0
2016-Feb-05 16:50 310 12 5.4-1.0
2016-Feb-05 15:50 280 14 0.8-0.0 Light snow.
2016-Feb-05 14:50 250 15 1.1-0.0 Snow showers. Blowing snow.
2016-Feb-05 13:50 250 16 5.4-0.0
2016-Feb-05 12:50 250 18 2.1-0.0 Light snow showers. Blowing snow.
2016-Feb-05 11:50 250 16 1.2 1.0 Snow showers. Blowing snow.
2016-Feb-05 10:50 250 17 5.4 1.0
2016-Feb-05 09:50 250 16 5.4 1.0 Light snow showers.
2016-Feb-05 08:50 250 15 5.4 1.0 Light snow showers.
2016-Feb-05 07:50 250 15 5.4 1.0
2016-Feb-05 06:50 260 16 5.4 1.0
2016-Feb-05 05:50 250 13 5.4 1.0 Light snow.
2016-Feb-05 04:50 260 12 5.4-0.0 Light snow.
2016-Feb-05 03:50 250 13 5.4-0.0 Snow grains.
2016-Feb-05 02:50 250 12 5.4-0.0
2016-Feb-05 01:50 240 13 5.4-0.0
2016-Feb-05 00:50 230 9 4.9-1.0 Light snow.
2016-Feb-04 23:50 230 9 5.4-0.0 Snow grains.